Location: Chelle
(43.1367°N, 0.2418°E)
Time: 23:29:10
(UTC+00:00)

Daily predictions for brighter satellites

Satellite Brightness Start Highest point End
(mag) Time Altitude Azimuth Time Altitude Azimuth Time Altitude Azimuth
USA 81 4.3 16:47:36 10° S 16:52:51 80° W 16:58:09 10° N
CZ-2C R/B 4.1 16:51:44 10° NE 16:54:55 16° E 16:58:04 10° SE
USA 267 4.0 16:49:28 10° NE 16:55:37 45° NNW 17:01:45 10° W
Spot 1 4.3 16:52:23 10° NNE 16:56:54 88° W 17:01:41 10° SSW
RESURS DK-1 4.5 16:54:55 10° WSW 16:58:14 23° NW 17:01:33 10° N
Cosmos 1503 Rocket 4.3 16:53:49 10° NNW 16:59:13 82° WSW 17:04:35 10° SSE
USA 306 2.9 16:55:06 10° SW 16:59:22 83° SE 17:03:37 10° NE
Cosmos 1271 Rocket 3.0 16:55:38 10° S 16:59:23 50° E 17:03:14 10° NNE
Lacrosse 5 rocket 3.3 16:57:22 10° WNW 16:59:49 16° NNW 17:02:21 10° NNE
SMAP 3.2 17:00:11 10° SSE 17:04:42 54° ENE 17:09:15 10° N
ATLAS 2AS CENTAUR R/B 4.1 16:59:03 10° WSW 17:06:18 39° NW 17:13:22 10° NNE
CZ-4B DEB 4.4 17:02:45 10° SE 17:08:03 48° ENE 17:13:20 10° N
Cosmos 1408 Rocket 4.3 17:05:18 10° NNE 17:09:08 30° ENE 17:12:59 10° SE
Cosmos 1697 Rocket 4.3 17:08:51 10° NNE 17:11:43 14° NE 17:14:22 11° ENE
NOAA 12 4.2 17:06:36 10° SSE 17:11:57 85° WSW 17:17:19 10° NNW
H-2A R/B 2.6 17:07:47 10° SE 17:12:30 35° ENE 17:17:09 10° N
Cosmos 1513 Rocket 4.5 17:08:22 10° S 17:14:20 63° E 17:20:24 10° NNE
USA 307 2.9 17:10:10 10° SW 17:14:27 85° NW 17:18:32 11° NE
ATLAS CENTAUR R/B 1.6 17:15:00 10° SW 17:18:59 69° NW 17:23:21 10° NNE
Cosmos 2034 Rocket 4.3 17:14:05 10° SSE 17:19:51 44° E 17:25:37 10° NNE
Cosmos 1777 Rocket 4.0 17:15:00 10° NNW 17:20:17 72° ENE 17:25:33 10° SSE
Cosmos 1939 Rocket 2.9 17:17:59 10° SSE 17:22:08 88° ENE 17:26:17 10° NNW
Lacrosse 5 1.8 17:18:05 10° NW 17:23:12 70° NE 17:28:17 10° SE
SKYMED 2 4.5 17:23:36 10° NE 17:27:21 28° E 17:31:05 10° SSE
USA 234 4.2 17:22:17 10° SSE 17:28:38 52° SW 17:35:00 10° WNW
NOSS 2-1 (C) 3.4 17:25:50 10° SW 17:29:07 55° NW 17:32:11 11° NNE
NOSS 3-1 (C) 4.3 17:22:46 10° NNW 17:29:49 45° NE 17:37:59 10° ESE
Okean 3 Rocket 3.7 17:25:43 10° N 17:30:16 82° W 17:34:45 10° S
Cosmos 1656 4.3 17:26:42 10° N 17:31:38 32° NE 17:36:36 10° ESE
MOS 1-B Rocket 4.2 17:26:58 10° NNE 17:32:28 47° E 17:38:29 10° S
CZ-2D R/B 3.3 17:29:58 10° SSE 17:33:44 53° ENE 17:37:29 10° N
GEOS 3 Rocket 3.9 17:29:29 10° ESE 17:34:30 47° NE 17:39:29 10° NNW
Cosmos 1862 3.8 17:31:30 10° NNW 17:35:27 64° W 17:39:23 10° S
Cosmos 1461 4.1 17:31:31 10° WSW 17:35:31 39° NW 17:39:25 10° NNE
PSLV R/B 3.5 17:32:00 10° SSE 17:35:38 68° ENE 17:39:19 10° N
MOS 1-B 4.3 17:30:09 10° SSE 17:35:49 61° ENE 17:41:30 10° N
USA 308 3.2 17:32:22 10° WSW 17:36:34 60° NNW 17:39:45 17° NE
SL-4 R/B 4.5 17:34:21 10° WNW 17:38:20 28° SW 17:42:25 10° SSE
NOSS 2-1 (D) 3.8 17:35:13 10° WSW 17:38:24 43° NW 17:41:11 12° NNE
Cosmos 1500 Rocket 4.0 17:38:31 10° N 17:42:44 40° ENE 17:46:54 10° SSE
ATLAS 5 CENTAUR R/B 4.4 17:39:12 10° NW 17:44:21 32° WSW 17:50:14 10° S
ATLAS 3B R/B 4.3 17:38:13 10° NW 17:44:56 41° WSW 17:51:51 10° S
SJ 16-02 1.3 17:40:41 10° NNW 17:45:05 89° WSW 17:49:28 10° SSE
BREEZE-M DEB (TANK) 4.2 17:36:48 10° WNW 17:46:48 78° SW 17:49:49 13° SE
Cosmos 1842 Rocket 3.5 17:46:40 10° S 17:51:06 90° NNE 17:55:35 10° N
Cosmos 1805 Rocket 4.3 17:49:11 10° NNE 17:53:01 30° ENE 17:56:49 10° SE
CZ-4B R/B 3.1 17:47:37 10° SSE 17:53:02 62° ENE 17:58:23 10° N
CZ-4C R/B 4.2 17:49:17 10° NNW 17:54:01 19° NNE 17:56:09 17° NE
TIMED 4.5 17:52:40 10° S 17:56:58 65° ESE 17:59:55 20° NNE
Cosmos 1833 Rocket 3.4 17:52:11 10° SSE 17:57:02 31° ESE 17:58:47 26° ENE
ATLAS 5 CENTAUR R/B 4.0 17:50:35 10° NW 17:57:08 20° N 17:58:53 17° NNE
Cosmos 540 Rocket 4.5 17:58:46 10° SSE 18:02:29 25° ESE 18:02:29 25° ESE
Cosmos 1606 4.1 18:01:57 10° SSW 18:05:28 38° WNW 18:09:01 10° N
USA 305 4.0 18:03:47 10° W 18:07:41 36° NNW 18:09:32 24° NNE
Meteor 1-25 Rocket 4.1 18:03:17 10° N 18:08:47 60° ENE 18:14:17 10° SSE
Cosmos 2026 Rocket 4.0 18:03:35 10° N 18:09:38 52° ENE 18:15:32 10° SSE
USA 276 3.7 18:08:11 10° NW 18:10:26 23° N 18:10:26 23° N
Cosmos 2195 Rocket 4.4 18:04:51 10° N 18:10:56 63° E 18:17:03 10° SSE
Okean O Rocket 1.5 18:07:27 10° SSE 18:11:52 72° ENE 18:16:19 10° N
ARGOS 3.0 18:07:35 10° SSE 18:12:59 72° ENE 18:18:23 10° N
COSMO-SKYMED 1 2.5 18:11:30 12° NNE 18:15:35 88° WNW 18:19:55 10° SSW
ATLAS CENTAUR R/B 3.0 18:06:24 10° SW 18:17:13 74° SE 18:19:17 38° ENE
CZ-4C R/B 4.5 18:20:21 23° SSE 18:20:21 23° SSE 18:21:46 10° S
ERBS 2.9 18:16:26 10° WSW 18:19:31 45° NW 18:19:49 44° NNW
Cosmos 1782 3.9 18:16:34 10° SSE 18:18:52 30° SE 18:18:52 30° SE
Cosmos 1937 Rocket 4.2 18:17:02 10° N 18:21:06 34° NE 18:21:06 34° NE
Cosmos 2221 4.2 18:21:39 10° SW 18:25:27 32° WNW 18:29:20 10° N
Cosmos 1763 Rocket 3.3 18:21:48 10° SSW 18:26:50 74° ESE 18:28:44 38° NNE
ISS -1.6 18:25:44 10° NW 18:27:49 19° NNW 18:27:49 19° NNW
Cosmos 1933 3.3 18:28:15 10° S 18:32:19 82° W 18:33:24 48° N
deb Chang Zheng 4 4.3 18:28:21 10° S 18:32:33 54° W 18:36:48 10° NNW
YAOGAN 1 4.4 18:35:37 20° N 18:35:37 20° N 18:36:58 10° N
Cosmos 1340 Rocket 3.6 18:29:19 10° NNW 18:33:16 52° W 18:37:13 10° S
CZ-2C R/B 2.9 18:30:29 10° N 18:35:42 64° WNW 18:40:48 10° SSW
IRAS Rocket 4.3 18:38:23 50° ESE 18:38:23 50° ESE 18:43:21 10° S
Feng Yun 1-1 Rocket 4.2 18:32:08 10° SSE 18:38:02 79° ENE 18:43:59 10° NNW
Meteor 2-21 4.3 18:32:29 10° N 18:38:38 77° E 18:44:41 10° SSE
USA 306 4.4 18:35:58 10° W 18:39:37 27° NNW 18:40:01 26° N
Lacrosse 5 rocket 3.9 18:39:14 10° NNW 18:39:29 10° N 18:39:29 10° N
Landsat 5 3.9 18:38:53 30° N 18:40:49 62° WNW 18:44:53 10° SSW
Cosmos 990 Rocket 3.9 18:37:14 10° NNW 18:42:28 84° WSW 18:46:44 15° SSE
H-2A R/B 3.9 18:47:14 10° SSW 18:51:55 31° W 18:56:30 10° NNW
USA 229 DEB 3.8 18:45:32 10° NNW 18:52:53 70° NE 18:54:57 50° ESE
USA 229 3.8 18:45:38 10° NNW 18:52:58 69° NE 18:54:59 51° ESE
Cosmos 1092 Rocket 4.5 18:47:32 10° NNW 18:53:48 61° W 19:00:01 10° S
COSMOS 2455 3.7 18:50:50 10° S 18:54:37 35° SSE 18:54:37 35° SSE
Cosmos 1697 Rocket 2.6 18:51:05 10° NNW 18:56:10 68° NNE 18:56:10 68° NNE
Cosmos 1980 Rocket 3.6 18:51:54 10° NNW 18:54:31 25° N 18:54:31 25° N
COSMOS 2406 3.1 18:51:42 10° SSW 18:57:17 76° SE 18:57:17 76° SE
Meteor 1-26 Rocket 4.4 18:52:54 10° SSW 18:58:46 78° W 19:02:35 24° N
ATLAS CENTAUR R/B 4.1 18:56:51 10° WNW 18:58:46 13° NNW 19:00:04 11° NNW
Cosmos 44 3.5 18:54:54 10° NW 18:59:25 63° WSW 18:59:25 63° WSW
Cosmos 2082 Rocket 3.5 18:55:41 10° S 18:58:13 26° SSE 18:58:13 26° SSE
Cosmos 2142 Rocket 4.3 18:56:35 10° S 19:02:42 86° E 19:04:23 51° NNE
Lacrosse 5 4.2 19:01:54 10° WNW 19:05:43 21° WSW 19:09:31 10° S
Cosmos 1898 Rocket 3.8 19:06:18 10° NNW 19:11:31 64° WSW 19:11:39 64° WSW
NOSS 3-1 (A) 4.1 19:08:35 10° NW 19:16:16 85° WSW 19:19:12 47° SSE
Cosmos 2279 Rocket 4.2 19:21:03 10° SSW 19:27:14 66° W 19:28:11 58° NW
Cosmos 1833 Rocket 3.8 19:35:34 10° SW 19:40:32 39° WNW 19:40:32 39° WNW
CZ-4C R/B 3.8 19:37:07 10° NNW 19:41:21 37° N 19:41:21 37° N
